Regional Weather Roundup
Issued by NWS

Home | Current Version | Previous Version | Text Only | Print | Product List | Glossary On
Versions: 1 2 3 4 5 6 7 8 9 10 11 12 13 14 15 16 17 18 19 20 21 22 23 24 25 26 27 28 29 30 31 32 33 34 35 36 37 38 39 40 41 42 43 44 45 46 47 48 49 50
000
ASUS43 KLMK 150802
RWRKY
KENTUCKY REGIONAL WEATHER ROUNDUP
NATIONAL WEATHER SERVICE LOUISVILLE KY
300 AM EST FRI DEC 15 2017

NOTE "FAIR" INDICATES FEW OR NO CLOUDS BELOW 12,000 FEET
WITH NO SIGNIFICANT WEATHER AND/OR OBSTRUCTIONS TO VISIBILITY.

KYZ001>023-026-027-061>063-070>075-150900-
WESTERN AND SOUTH CENTRAL KENTUCKY

CITY           SKY/WX    TMP DP  RH WIND       PRES   REMARKS
PADUCAH        CLOUDY    32  22  66 W5        30.12R WCI  27
HENDERSON      CLOUDY    31  24  75 SW6       30.10S WCI  25
OWENSBORO      CLOUDY    31  22  69 W7        30.09F WCI  24
HOPKINSVILLE   CLOUDY    31  21  65 W3        30.09R
BOWLING GREEN  CLOUDY    32  22  66 W6        30.08S WCI  26
GLASGOW        NOT AVBL
$$

KYZ024-025-028>034-038-045-046-053-150900-
NORTH CENTRAL KENTUCKY

CITY           SKY/WX    TMP DP  RH WIND       PRES   REMARKS
LOUISVILLE/SDF CLOUDY    28  18  66 CALM      30.08R
LOUISVILLE/LOU CLOUDY    27  20  75 CALM      30.08S
FORT KNOX      CLOUDY    28  20  73 CALM      30.04S
$$

KYZ035>037-039>044-047>052-055>060-089>105-150900-
NORTHEAST KENTUCKY

CITY           SKY/WX    TMP DP  RH WIND       PRES   REMARKS
LEXINGTON      CLOUDY    26  18  71 CALM      30.04S
COVINGTON      CLOUDY    23  19  85 CALM      30.03F
FRANKFORT      CLOUDY    24  16  71 CALM      30.04S
$$

KYZ054-064>069-076>088-106>120-150900-
SOUTHEAST KENTUCKY

CITY           SKY/WX    TMP DP  RH WIND       PRES   REMARKS
JACKSON        CLOUDY    29  21  72 CALM      30.00S
LONDON         CLOUDY    31  22  69 N3        30.01S
SOMERSET       CLOUDY    30  19  64 CALM      30.05S
MIDDLESBORO    CLOUDY    27  25  90 CALM      30.02S
MONTICELLO     CLOUDY    31  26  82 NE12      30.05S WCI  22
$$





USA.gov is the U.S. government's official web portal to all federal, state and local government web resources and services.